Regional Weather Roundup
Issued by NWS Grand Forks, ND

Home | Current Version | Previous Version | Text Only | Print | Product List | Glossary On
Versions: 1 2 3 4 5 6 7 8 9 10 11 12 13 14 15 16 17 18 19 20 21 22 23 24 25 26 27 28 29 30 31 32 33 34 35 36 37 38 39 40 41 42 43 44 45 46 47 48 49 50
000
ASUS43 KFGF 080710
RWRFGF
PRAIRIE TO PINES  WEATHER ROUNDUP
NATIONAL WEATHER SERVICE EASTERN NORTH DAKOTA/GRAND FORKS ND
200 AM CDT WED JUL 08 2015

 **SATELLITE DATA USED TO AUGMENT SKY COVER AT AUTOMATED STATIONS**
 *****  WEATHER ACROSS EASTERN NORTH DAKOTA  *****

CITY           SKY/WX    TMP DP  RH WIND       PRES   REMARKS
GRAND FORKS    MOCLDY    58  49  72 S8        29.97F
GRAND FRKS AFB PTCLDY    58  49  70 S8        29.96F
GRAND FRKS NWS   N/A     57 N/A N/A S5          N/A
DEVILS LAKE    CLOUDY    63  55  77 SW13      29.96F
FARGO          PTCLDY    60  49  66 S10       30.02F
WAHPETON ARPT  SUNNY     54  46  76 S8        30.05F
$$

 ***** WEATHER ACROSS CENTRAL AND WESTERN NORTH DAKOTA  *****

CITY           SKY/WX    TMP DP  RH WIND       PRES   REMARKS
BISMARCK       CLOUDY    63  57  81 SE7       29.95F
MINOT          PTCLDY    58  55  90 S5        29.93F
JAMESTOWN      MOCLDY    60  49  66 S12       29.96F
MINOT AFB      MOCLDY    57  57 100 S7        29.92F
GARRISON         N/A     61  57  87 E12       29.94F
WILLISTON      MOCLDY    61  54  77 NW6       29.96S
DICKINSON      FOG       55  54  96 S3        29.95F VSB 1/4
HETTINGER      MOCLDY    59  56  89 CALM      29.96S
$$

 *****  OTHER AIRPORT OBSERVATIONS IN OUR AREA  *****

CITY           SKY/WX    TMP DP  RH WIND       PRES   REMARKS
WALHALLA       FAIR      63  54  72 MISG      29.93F
GRAFTON AIRPOR FAIR      55  50  82 S9        29.97S
VALLEY CITY AR FAIR      57  50  77 S9        29.99F
CANDO          LGT RAIN  59  57  94 SW16      29.95F
CAVALIER APRT  FAIR      59  48  67 S10       29.94S
GWINNER        FAIR      57  52  82 S8        30.02F
ROLLA          FAIR      59  57  94 SW17      29.94F
 ***** THE ABOVE OBSERVATIONS ARE NON NWS ARE NOT QUALITY
       CONTROLLED AND MAY MIS-REPORT RAIN FOR SNOW...
$$

  *****  WEATHER ACROSS NORTHERN MINNESOTA  *****

CITY           SKY/WX    TMP DP  RH WIND       PRES   REMARKS
FLAG ISLAND    PTCLDY    63  52  67 SW12      29.97F
WARROAD        PTCLDY    55  48  76 S6        30.00F
ROSEAU         MOCLDY    55  48  76 S8        29.99F
HALLOCK        CLOUDY    57  50  77 S12       29.96S
THF RVR FALLS  CLEAR     54  46  76 S7        30.01F
BAUDETTE       CLEAR     52  45  77 S3        30.01F
WASKISH        CLEAR     52  48  87 S3        30.04F
CROOKSTON      PTCLDY    57  48  72 S10       30.01S
STEPHEN NDAWN    N/A     57  50  77 S12         N/A
GREENBUSH NDAW   N/A     57  48  72 S8          N/A
$$
  *****  WEATHER ACROSS CENTRAL AND WEST MINNESOTA  *****

CITY           SKY/WX    TMP DP  RH WIND       PRES   REMARKS
FOSSTON        CLEAR     50  46  87 S6        30.04F
BEMIDJI        CLEAR     53  46  79 CALM      30.05F
PARK RAPIDS    CLEAR     53  46  77 S5        30.07F
ELBOW LAKE     FAIR      53  49  86 S9        30.06F
WADENA         PTCLDY    50  46  87 S3        30.07F
DETROIT LAKES  PTCLDY    57  50  77 S7        30.07F
MOORHEAD       PTCLDY    55  48  76 S9        30.03F
FERGUS FALLS   CLEAR     55  48  76 S6        30.06F
MORRIS MN      CLEAR     54  50  87 S3        30.08F
STAPLES        CLEAR     50  46  87 S5        30.09S
$$
  *****  WEATHER ELSEWHERE ACROSS MINNESOTA  *****

CITY           SKY/WX    TMP DP  RH WIND       PRES   REMARKS
DULUTH         CLEAR     54  47  77 W3        30.09S
INTRNTL FALLS  CLEAR     46  43  89 CALM      30.03F
ELY            CLEAR     45  43  93 CALM      30.08S
CLOQUET        CLEAR     52  45  76 CALM      30.10S
WHEATON        CLEAR     55  48  76 S9        30.08F
BRAINERD       CLEAR     51  47  86 CALM      30.10S
HIBBING        CLEAR     42  40  92 CALM      30.08S FOG
ALEXANDRIA     CLEAR     56  50  80 S7        30.11S
SAINT CLOUD    CLEAR     50  49  96 CALM      30.10F
MINNEAPOLIS    PTCLDY    61  52  72 CALM      30.11F
$$

  *****  WEATHER ACROSS SOUTH DAKOTA  *****

CITY           SKY/WX    TMP DP  RH WIND       PRES   REMARKS
SIOUX FALLS    PTCLDY    59  50  72 S9        30.10F
BROOKINGS      PTCLDY    54  48  82 SE7       30.12S
WATERTOWN      CLEAR     55  49  80 SE8       30.08F
HURON          CLEAR     55  51  86 SE8       30.04F
SISSETON         N/A     51  48  89 S9        30.05F
ABERDEEN       CLEAR     55  51  86 SE9       30.03F
MITCHELL       CLEAR     57  53  86 S7        30.07F
PIERRE         CLEAR     61  54  77 SE13      29.98F
MOBRIDGE       CLOUDY    65  58  78 SE14      29.94F
RAPID CITY     CLOUDY    64  56  75 SW5       30.00F
$$

  *****  SOME WEATHER IN NEARBY STATES *****

CITY           SKY/WX    TMP DP  RH WIND       PRES   REMARKS
GLASGOW MT     CLEAR     59  45  59 NE3       30.00S
GREAT FALLS MT CLEAR     51  47  86 CALM      30.10S
CHEYENNE WY    MOCLDY    56  53  90 CALM      30.12S FOG
SCOTTSBLUFF NE CLOUDY    62  51  67 E9        30.05F
OMAHA NE       CLEAR     61  52  72 E3        30.09S
DES MOINES IA  MOCLDY    60  51  72 E6        30.09F
DAVENPORT IA   CLOUDY    59  54  83 E9        30.11S
CHICAGO IL     MOCLDY    55  48  77 N7        30.10S
EAU CLAIRE WI  MOCLDY    52  49  89 CALM      30.12R
LA CROSSE WI   MOCLDY    61  55  81 CALM      30.10S
$$

  *****  SOME NATIONAL WEATHER *****

CITY           SKY/WX    TMP DP  RH WIND       PRES   REMARKS
LA GUARDIA NY  PTCLDY    80  68  66 SW9       29.92F
RALEIGH NC     MOCLDY    77  72  84 SW8       30.09F
ATLANTA GA     PTCLDY    76  70  82 W7        30.16S
NEW ORLEANS LA PTCLDY    81  75  82 S8        30.10F
OKLAHOMA CITY  CLOUDY    67  66  97 N9        29.93F FOG
ALBUQUERQUE NM CLOUDY    62  53  72 SE13      30.15F
SALT LAKE CITY MOCLDY    71  53  52 S6        29.97R
LOS ANGELES CA PTCLDY    66  60  81 S9        29.90F
BOISE ID       CLEAR     74  47  38 W3        29.85S
SEATTLE WA     MOCLDY    62  54  74 W3        29.93R
$$

*** WEATHER ACROSS MANITOBA...SASKATCHEWAN AND ONTARIO ***
                ***ONTARIO***

CITY           SKY/WX    TMP DP  RH WIND       PRES   REMARKS
GERALDTON      PTCLDY    54  48  82 SW5       30.02S
THUNDER BAY    CLEAR     48  48 100 W3        30.06S
SIOUX LOOKOUT  MOCLDY    55  48  76 SW5       30.00F
TORONTO        MOCLDY    59  55  88 N10       30.00R
BIG TROUT LK   MOCLDY    57  52  82 W6        29.81S
PICKLE LAKE    NOT AVBL
DRYDEN         MOCLDY    57  48  72 S8        30.00F
KENORA         NOT AVBL
$$
                *** MANITOBA***

CITY           SKY/WX    TMP DP  RH WIND       PRES   REMARKS
BRANDON        CLOUDY    55  54  94 SE6       29.92F
DAUPHIN        CLOUDY    55  54  94 W6        29.92S
ISLAND LAKE    MOCLDY    50  48  93 N3        29.89F
PILOT MOUND      N/A     55  54  94 S6          N/A
THE PAS        CLEAR     52  46  82 CALM      29.94S
THOMPSON       PTCLDY    36  34  93 CALM      29.86F
WINNIPEG       MOCLDY    59  50  72 S6        29.92F
LYNN LAKE      CLEAR     43  39  87 W7        29.87F
CHURCHILL      PTCLDY    48  43  81 W12       29.69F
GILLAM         CLEAR     45  41  87 W8        29.82S
$$
                ***SASKATCHEWAN***

CITY           SKY/WX    TMP DP  RH WIND       PRES   REMARKS
ESTEVAN        MOCLDY    55  54  94 N13G18    29.97R SMOKE
KINDERSLEY     PTCLDY    46  41  81 E9        30.05S
LLOYDMINSTER   CLEAR     46  39  76 W6        30.01F
PRINCE ALBERT  PTCLDY    39  37  93 NW2       30.01S
REGINA         CLEAR     45  45 100 N6        30.03S SMOKE
YORKTON        CLOUDY    54  50  87 NW5       29.97S FOG
N. BATTLEFORD  CLEAR     45  39  81 SE3       30.04F
LA RONGE       SMOKE     46  43  87 SW5       29.95F VSB 1
SASKATOON      PTCLDY    43  39  87 W5        30.05S
SWIFT CURRENT  CLEAR     50  45  81 E6        30.06S
$$
NOTE: THESE ARE AUTOMATED STATIONS WITH LIMITED QUALITY CONTROL
      "FAIR" INDICATES FEW OR NO CLOUDS BELOW 12,000 FEET WITH NO
      SIGNIFICANT WEATHER AND/OR OBSTRUCTIONS TO VISIBILITY.
      SKY/WX - SKY CONDITION AND SIGNIFICANT WEATHER.
      TMP - AIR TEMPERATURE.    DP   - DEWPOINT TEMPERATURE.
      RH  - RELATIVE HUMIDITY.  PRES - PRESSURE.
      HX  - HEAT INDEX.         WCI  - WIND CHILL INDEX.
$


USA.gov is the U.S. government's official web portal to all federal, state and local government web resources and services.